Regional Weather Roundup
Issued by NWS

Home | Current Version | Previous Version | Text Only | Print | Product List | Glossary On
Versions: 1 2 3 4 5 6 7 8 9 10 11 12 13 14 15 16 17 18 19 20 21 22 23 24 25 26 27 28 29 30 31 32 33 34 35 36 37 38 39 40 41 42 43 44 45 46 47 48 49 50
000
ASHW40 PHFO 300843
RWRHI

WEATHER ROUNDUP FOR HAWAII
NATIONAL WEATHER SERVICE HONOLULU HI
1000 PM HST THU SEP 29 2016

THIS IS AN AUTOMATED REPORT THAT HAS NOT BEEN QUALITY CONTROLLED.

NOTE..."FAIR" INDICATES FEW OR NO CLOUDS BELOW 12,000 FEET WITH NO
SIGNIFICANT WEATHER AND/OR OBSTRUCTIONS TO VISIBILITY.

* - THESE SITES REPORT LIMITED FIELDS

HIZ001>004-300900-
KAUAI-NIIHAU-

CITY           SKY/WX    TMP DP  RH WIND       PRES   REMARKS
LIHUE APT      CLOUDY    79  72  79 NE15      30.08S
PORT ALLEN*      N/A     79 N/A N/A NE14        N/A
POIPU*           N/A     77 N/A N/A NE10G22     N/A
PRINCEVILLE*     N/A     73 N/A N/A SE6         N/A
KOKOLE POINT*  NOT AVBL
MOLOAA DAIRY*    N/A     77  70  78 E6G12       N/A
WAIMEA HTS*      N/A     77  63  61 E8G17       N/A
PUU OPAE*        N/A     70  64  83 CALM        N/A
PUU LUA*       NOT AVBL
MAKAHA RIDGE*    N/A     72  63  73 E5G13       N/A
$$

HIZ005>011-300900-
OAHU-

CITY           SKY/WX    TMP DP  RH WIND       PRES   REMARKS
HONOLULU       PTCLDY    77  67  71 NE14      30.05R
KALAELOA       CLEAR     78  67  68 NE6       30.06R
KANEOHE MCB    MOCLDY    79  69  71 E13       30.04R
WHEELER FIELD  FAIR      74  68  83 CALM      30.07R
BELLOWS*         N/A    N/A N/A N/A NE18        N/A
WHEELER*         N/A    N/A N/A N/A NE2         N/A
WAIANAE HARBOR   N/A    N/A N/A N/A NE6G12      N/A
DILLINGHAM*      N/A     88  81  79 MISG        N/A  HX 105
KAHUKU TRN*      N/A     82  75  78 W10G21      N/A
KAWAILOA*        N/A     72  66  83 E9G20       N/A
KII*             N/A     79  72  78 E18G26      N/A
MAKUA RANGE*     N/A     79  72  78 W5          N/A
OAHU FOREST NW   N/A     70  64  83 E6G20       N/A
SCHOFIELD BRK*   N/A     79  77  94 SW1         N/A
SCHOFIELD S*   NOT AVBL
WAIANAE VLY*     N/A     84  73  70 SW3G10      N/A  HX  91
KUAOKALA*        N/A     73  68  83 E10G17      N/A
HONOULIUULI*   NOT AVBL
MOKUOLOE IS*   NOT AVBL
PALEHUA*         N/A     66  64  94 NE9G22      N/A
WAIAWA PHB*    NOT AVBL
$$

HIZ012>013-300900-
MOLOKAI-

CITY           SKY/WX    TMP DP  RH WIND       PRES   REMARKS
MOLOKAI AIRPT  LGT RAIN  77  70  79 NE13G23   30.07R
KALAUPAPA      NOT AVBL
MAKAPULAPAI*     N/A     79  72  78 E18G26      N/A
MOLOKAI 1*       N/A     68  64  88 SE2         N/A
PUU ALII*        N/A     62  62 100 N2G8        N/A
$$

HIZ016-300900-
KAHOOLAWE-

CITY           SKY/WX    TMP DP  RH WIND       PRES   REMARKS
KAHOOLAWE*       N/A     72 N/A N/A E1          N/A
HAKIOAWA*        N/A     75  68  79 MISG      30.47S
HONOKANAIA*      N/A     79  69  72 NE10G28   29.98R
KANELOA*         N/A     73  68  83 E14G32      N/A
KEALIALALO*    NOT AVBL
LUA MAKIKA*    NOT AVBL
$$

HIZ014>015-300900-
LANAI-

CITY           SKY/WX    TMP DP  RH WIND       PRES   REMARKS
LANAI CITY     FAIR      70  66  87 NE7       30.11R
LANAI 1*       NOT AVBL
$$

HIZ017>028-300900-
MAUI-

CITY           SKY/WX    TMP DP  RH WIND       PRES   REMARKS
KAHULUI        PTCLDY    76  70  82 NE13      30.05R
KAPALUA-W MAUI NOT AVBL
HANA AIRPORT     N/A     73  72  94 SE3       30.10R
HANA*            N/A     75 N/A N/A S3          N/A
HALEAKALA SUMM   N/A     43  27  52 E12G24      N/A
MAALAEA BAY*     N/A     77 N/A N/A N20G26      N/A
HALEAKALA*     NOT AVBL
KAUPO GAP*       N/A     72  66  83 N3G20       N/A
KULA 1*          N/A     51  35  55 E5          N/A
$$

HIZ023>026-300900-
BIG ISLAND OF HAWAII COAST AND LOWER SLOPES-

CITY           SKY/WX    TMP DP  RH WIND       PRES   REMARKS
KAILUA KONA    MOCLDY    81  69  67 E3        30.00S
HILO           LGT RAIN  74  71  91 W5        30.07S
HONOKAA*         N/A     70 N/A N/A VRB1        N/A
KAWAIHAE MWT*    N/A     81 N/A N/A N6          N/A
KAWAIHAE*        N/A     81 N/A N/A E3        30.01R
SOUTH POINT*     N/A     73 N/A N/A N17G26      N/A
UPOLU AIRPORT* NOT AVBL
KAMUELA*       SUNNY     66  63  88 NE16      30.14R
HAKALAU*         N/A     52  51  95 SW1         N/A
KALOKO-HONOKO*   N/A     75  70  83 NE3         N/A
PALI 2*          N/A     66  63  88 SW10G17     N/A
KEALAKOMO*       N/A     79  68  69 NE12G17     N/A
KAUPULEHU*       N/A     73  66  78 SW8G14      N/A
KAPAPALA*        N/A     69  67  93 CALM        N/A
LOWER KAHUKU*    N/A     61  59  94 NE3G14      N/A
PUHE CS*         N/A     81  66  61 NE3         N/A
PUHO CS*         N/A     78  69  73 NE2         N/A
PTA KEAMUKU*     N/A     61  55  82 CALM        N/A
WAIKOLOA*        N/A    N/A N/A N/A E8G14       N/A
$$

HIZ027>028-300900-
BIG ISLAND OF HAWAII INTERIOR AND SUMMMITS-

CITY           SKY/WX    TMP DP  RH WIND       PRES   REMARKS
BRADSHAW FIELD PTCLDY    54  52  90 SE8G16    30.36S
MK VISITOR CEN   N/A     46  21  36 VRB3        N/A
MAUNA KEA*       N/A     34 -11  14 NE10        N/A  WCI  26
MAUNA LOA*       N/A     43  -4  14 MISG        N/A
MAUNA LOA 1*   NOT AVBL
PTA KIPUKA*      N/A     73  73 100 SE3         N/A
PTA RANGE 17*    N/A     61  50  67 E13G21      N/A
PTA WEST*        N/A     77  75  94 S7          N/A
NENE CABIN*      N/A     52  45  76 NE5G12      N/A
AHUMOA*          N/A     52  41  67 E3          N/A
PTA PORTABLE*  NOT AVBL
PUU MALI*        N/A     61  39  44 E12G18      N/A
$$

HIC003-300900-
NORTHWEST ISLANDS-

CITY           SKY/WX    TMP DP  RH WIND       PRES   REMARKS
MIDWAY ISLAND  CLEAR     81  73  78 SE5       30.13R
MIDWAY NOS*      N/A     81 N/A N/A MISG      30.13R
FRENCH FRIGATE NOT AVBL
$$

PHZ110>124-180-300900-
BUOY REPORTS

STATION/POSITION TIME  TEMP    WIND        PRES    WAVE   SWELL
                       AIR SEA DIR/SP/G            HT/PER HT/DIR
                 (UTC) (F)     (DEG/KT/KT) (MB)    (FT/S) (FT/D)
BUOY 51001       NOT AVBL
BUOY 51101       0750   80 80   80/ 16/ 19 1018.8R   6/ 8   3/ 70
BUOY 51100       NOT AVBL
BUOY 51002       NOT AVBL
BUOY 51003       0750   81 82   80/ 14/ 17 1015.5R   6/ 8   5/ 70
BUOY 51004       0750   80 81   60/ 12/ 14 1016.2R   6/ 8   5/ 70
BARBERS PT BUOY  NOT AVBL
WAIMEA BAY BUOY  0804      80                N/A     4/ 8
KAILUA BAY BUOY  0804      81                N/A     7/ 8   2/120
LANAI BUOY       0715      81                N/A     2/14   2/190
BARBERS PT 2     NOT AVBL
PAUWELA MAUI     0709      80                N/A     6/ 8
HILO             0812      80                N/A     6/ 8   2/130
KANEOHE BAY BUOY 0806      80                N/A     6/ 8
HANALEI KAUAI    NOT AVBL
KAHULUI HARBOR   0800   77 81   40/  9/ 14 1017.6R
HONOLULU HARBOR  0800   79 82  350/  5/  6 1018.1R
KILO NALU        NOT AVBL
HILO HARBOR      0800   74 79  260/  4/  5 1018.0R
MOKUOLOE         0700   79 82   80/ 10/ 13 1017.8R
NAWILIWILI       0800   78 83   70/ 11/ 14 1018.4R
WHOTS BUOY       NOT AVBL
BUOY 51028       NOT AVBL
$$

......................KEY........................................
  SKY/WX - SKY CONDITIONS/PRESENT WEATHER
  TMP    - TEMPERATURE IN FAHRENHEIT
  DWPT   - DEWPOINT IN FAHRENHEIT
  RH     - RELATIVE HUMIDITY IN PERCENT
  WIND   - DIRECTION AND SPEED /MPH FOR ISLANDS...KTS FOR BUOYS/
  PRES   - MEAN SEA LEVEL PRESSURE IN INCHES OF HG
  VSB    - VISIBILITY IN MILES
  HX     - HEAT INDEX
  WCI    - WIND CHILL INDEX
  VRB    - VARIABLE WIND DIRECTION
  N/A    - NOT AVAILABLE



USA.gov is the U.S. government's official web portal to all federal, state and local government web resources and services.